Flag for U.S.A. Weather past 2 weeks in Paradise, Nevada, U.S.A.

Now
102 °F

Partly cloudy.


Feels Like: 99 °F
Forecast: 87 / 109 °F
Wind: 7 mph from South

Location: McCarran International Airport

Current Time: Jun 29, 2015 at 10:30:45 PM

Latest Report: Jun 29, 2015 at 9:56 PM


Visibility: 10 mi

Pressure: 29.72 "Hg

Humidity: 17%

Dew point: 49 °F

Location of ParadiseLocation

Historic Weather in Paradise — Graph

°F

Paradise temperature yesterday

Maximum temperature yesterday: 109 °F (at 3:56 PM)
Minimum temperature yesterday: 90 °F (at 4:56 AM)
Average temperature yesterday: 99 °F

Past Weeks' High & Low Weather Summary

 TemperatureHumidityPressure
High112 °F (Jun 20, 2:56 PM)24% (Jun 29, 6:56 AM)29.85 "Hg (Jun 29, 6:56 AM)
Low80 °F (Jun 19, 5:56 AM)1% (Jun 22, 1:56 PM)29.57 "Hg (Jun 15, 5:56 PM)
Average98 °F8%29.70 "Hg
* Reported Jun 14 9:56 PM — Jun 29 9:56 PM, Paradise, Weather by CustomWeather, © 2015

Note: Actual official high and low records may vary slightly from our data, if they occured in-between our weather recording intervals... More about our weather records

Advertising

Paradise weather history for previous 24 hours

 ConditionsComfort  
Time TempWeatherWind HumidityBarometerVisibility
9:56 PM
Mon, Jun 29
102 °FPartly cloudy.7 mph17%29.72 "Hg10 mi
8:56 PM101 °FPartly sunny.5 mph19%29.69 "Hg10 mi
7:56 PM102 °FPartly sunny.8 mph16%29.69 "Hg10 mi
6:56 PM107 °FPartly sunny.15 mph13%29.68 "Hg10 mi
5:56 PM109 °FScattered clouds.6 mph11%29.67 "Hg10 mi
4:56 PM108 °FScattered clouds.3 mph12%29.67 "Hg10 mi
3:56 PM108 °FScattered clouds.10 mph12%29.69 "Hg10 mi
2:56 PM108 °FScattered clouds.3 mph12%29.73 "Hg10 mi
1:56 PM107 °FScattered clouds.10 mph12%29.75 "Hg10 mi
12:56 PM107 °FScattered clouds.15 mph12%29.77 "Hg10 mi
11:56 AM104 °FScattered clouds.7 mph13%29.79 "Hg10 mi
10:56 AM102 °FScattered clouds.6 mph15%29.81 "Hg10 mi
9:56 AM99 °FScattered clouds.3 mph16%29.82 "Hg10 mi
8:56 AM95 °FScattered clouds.6 mph19%29.82 "Hg10 mi
7:56 AM93 °FBroken clouds.5 mph22%29.81 "Hg10 mi
6:56 AM91 °FBroken clouds.6 mph24%29.80 "Hg10 mi
5:56 AM91 °FPartly cloudy.10 mph20%29.80 "Hg10 mi
4:56 AM90 °FPassing clouds.6 mph22%29.77 "Hg10 mi
3:56 AM92 °FPartly cloudy.10 mph20%29.75 "Hg10 mi
2:56 AM93 °FPassing clouds.12 mph19%29.75 "Hg10 mi
1:56 AM95 °FPassing clouds.9 mph19%29.75 "Hg10 mi
12:56 AM97 °FOvercast.9 mph17%29.74 "Hg10 mi
11:56 PM
Sun, Jun 28
97 °FOvercast.10 mph17%29.75 "Hg10 mi
10:56 PM99 °FOvercast.12 mph16%29.74 "Hg10 mi
Weather by CustomWeather, © 2015

See weather overviewHow to use our weather pages